Precipitable_Water
0.93 0.94 0.96 0.99 1.00 1.01 1.00 1.01 0.98 0.99 1.01 1.01 1.05 1.12 1.14 1.17 1.13 1.10 0.92 0.92 0.96 1.27 1.43 1.46 1.46 1.57 1.67 1.63 1.67 1.66 1.16 1.08 0.93 0.95 0.94 1.14 0.99 0.95 0.97 0.90 0.85 0.89 1.05 1.16 1.21
0.87 0.90 0.92 0.96 0.97 0.97 0.98 0.99 0.96 0.99 1.00 1.02 1.11 1.16 1.21 1.26 1.26 1.12 1.14 1.23 1.17 1.37 1.46 1.44 1.53 1.57 1.49 1.55 1.39 1.41 1.12 1.07 1.06 1.21 1.03 1.08 1.09 1.05 1.02 1.05 0.86 0.89 1.12 1.22 1.17
0.83 0.85 0.88 0.94 0.93 0.93 0.96 0.98 0.97 0.99 0.99 1.04 1.15 1.22 1.27 1.33 1.15 0.97 1.37 1.36 1.29 1.53 1.63 1.78 1.76 1.69 1.43 1.45 1.30 1.28 1.13 1.09 1.05 1.02 1.14 1.02 1.05 1.11 1.14 1.03 1.02 0.76 0.94 1.06 1.10
0.84 0.86 0.87 0.89 0.90 0.92 0.94 0.97 0.95 0.94 0.96 1.05 1.14 1.17 1.26 1.39 0.93 1.26 1.48 1.52 1.48 1.62 1.69 1.73 1.76 1.55 1.54 1.41 1.60 1.14 1.21 1.20 1.05 0.95 1.03 1.06 1.03 1.02 1.05 0.90 1.03 0.77 0.89 1.06 1.09
0.81 0.83 0.84 0.85 0.88 0.90 0.93 0.93 0.92 0.92 0.97 1.03 1.10 1.18 1.19 1.22 1.24 1.59 1.59 1.65 1.74 1.76 1.68 1.63 1.72 1.51 1.54 1.46 1.32 1.14 1.11 1.06 1.02 0.97 1.04 0.98 0.96 1.00 1.05 1.09 1.13 0.94 0.90 0.96 1.10
0.78 0.81 0.82 0.83 0.84 0.85 0.86 0.88 0.90 0.93 0.97 1.02 1.11 1.20 1.25 0.96 1.52 1.65 1.63 1.60 1.66 1.66 1.64 1.58 1.49 1.46 1.34 1.30 1.07 1.04 1.00 1.00 1.05 1.01 0.99 1.10 1.21 1.03 1.06 1.12 1.17 1.12 1.03 1.01 1.06
0.68 0.72 0.75 0.76 0.77 0.79 0.82 0.84 0.86 0.90 0.96 1.05 1.14 1.14 1.07 0.96 1.29 1.54 1.50 1.48 1.55 1.57 1.47 1.46 1.37 1.28 1.23 1.02 1.06 1.10 0.97 0.97 0.99 0.99 1.11 0.96 0.99 0.98 1.10 1.10 1.15 1.14 1.12 1.17 1.12
0.52 0.56 0.63 0.67 0.70 0.74 0.76 0.78 0.83 0.91 0.97 1.04 1.11 1.07 1.05 1.23 1.33 1.41 1.37 1.41 1.48 1.43 1.31 1.33 1.28 1.10 1.10 1.16 1.01 0.95 0.94 0.80 0.90 0.92 1.05 0.84 0.81 1.03 1.08 1.05 1.11 1.18 1.17 1.11 1.14
0.48 0.47 0.49 0.52 0.55 0.59 0.62 0.68 0.74 0.81 0.88 0.93 0.93 0.93 0.85 1.06 1.07 1.27 1.25 1.15 1.18 1.19 1.14 1.13 1.05 0.94 1.12 1.14 0.96 1.02 0.85 0.75 0.77 0.90 0.96 0.80 0.86 1.03 1.10 1.06 1.10 1.17 1.19 1.15 1.09
0.44 0.45 0.45 0.45 0.46 0.48 0.48 0.52 0.63 0.68 0.77 0.80 0.82 0.74 0.77 0.74 0.91 1.03 1.21 1.17 1.02 1.03 0.96 0.94 0.88 0.90 1.05 1.09 0.77 0.76 0.78 0.75 0.69 0.85 0.82 0.82 0.83 1.03 1.01 1.03 1.05 1.16 1.17 1.18 1.13
0.44 0.42 0.42 0.42 0.43 0.45 0.43 0.44 0.39 0.39 0.52 0.55 0.64 0.66 0.69 0.79 0.88 0.87 1.03 1.00 0.95 0.89 0.74 0.89 0.80 0.88 1.12 1.02 0.81 0.73 0.61 0.62 0.69 0.69 0.57 0.64 0.76 0.75 0.85 0.98 0.95 1.02 1.18 1.20 1.15
0.43 0.41 0.40 0.39 0.40 0.46 0.41 0.34 0.43 0.49 0.39 0.48 0.54 0.53 0.62 0.67 0.65 0.77 0.93 0.83 0.85 0.77 0.85 0.86 0.81 0.96 1.10 0.99 0.75 0.68 0.55 0.65 0.75 0.70 0.58 0.56 0.61 0.74 0.76 0.80 0.89 0.89 0.99 1.16 1.19
0.42 0.41 0.39 0.38 0.37 0.42 0.35 0.37 0.41 0.39 0.26 0.28 0.41 0.44 0.48 0.53 0.52 0.58 0.73 0.78 0.76 0.75 0.78 0.77 0.89 0.95 0.90 0.77 0.66 0.65 0.61 0.67 0.58 0.56 0.57 0.61 0.59 0.72 0.80 0.82 0.79 0.84 0.87 1.05 1.17
0.43 0.40 0.40 0.36 0.39 0.41 0.38 0.40 0.36 0.37 0.17 0.18 0.20 0.29 0.40 0.46 0.40 0.57 0.66 0.64 0.61 0.62 0.67 0.69 0.84 0.84 0.81 0.69 0.68 0.61 0.73 0.66 0.59 0.50 0.44 0.63 0.51 0.73 0.86 0.94 0.79 0.77 0.84 0.96 1.10
0.44 0.42 0.41 0.39 0.37 0.40 0.55 0.42 0.38 0.36 0.27 0.26 0.26 0.24 0.23 0.32 0.43 0.44 0.62 0.59 0.50 0.56 0.56 0.53 0.61 0.62 0.60 0.65 0.73 0.65 0.74 0.66 0.59 0.47 0.50 0.49 0.50 0.69 0.69 0.72 0.66 0.74 0.82 0.96 1.03
0.48 0.47 0.42 0.40 0.37 0.29 0.41 0.46 0.36 0.20 0.18 0.26 0.27 0.22 0.16 0.23 0.30 0.42 0.47 0.52 0.60 0.54 0.58 0.55 0.65 0.65 0.66 0.68 0.72 0.72 0.60 0.55 0.49 0.46 0.39 0.50 0.52 0.67 0.53 0.57 0.57 0.64 0.70 0.77 0.85
0.51 0.51 0.41 0.36 0.32 0.41 0.40 0.39 0.24 0.20 0.29 0.26 0.27 0.26 0.17 0.16 0.18 0.26 0.39 0.39 0.36 0.35 0.36 0.44 0.47 0.54 0.56 0.49 0.54 0.58 0.46 0.35 0.35 0.37 0.37 0.63 0.62 0.65 0.67 0.62 0.57 0.56 0.72 0.78 0.77
0.50 0.52 0.39 0.27 0.32 0.32 0.37 0.31 0.21 0.35 0.28 0.34 0.32 0.27 0.23 0.24 0.22 0.17 0.28 0.29 0.36 0.39 0.36 0.37 0.35 0.46 0.51 0.46 0.43 0.45 0.44 0.36 0.30 0.34 0.37 0.56 0.50 0.61 0.71 0.68 0.57 0.54 0.61 0.72 0.68
0.49 0.51 0.37 0.35 0.30 0.32 0.30 0.21 0.23 0.30 0.35 0.24 0.29 0.26 0.29 0.29 0.29 0.26 0.18 0.22 0.28 0.37 0.33 0.33 0.33 0.47 0.52 0.51 0.50 0.45 0.40 0.43 0.29 0.29 0.31 0.36 0.42 0.62 0.66 0.58 0.63 0.71 0.82 0.75 0.76
0.46 0.41 0.36 0.41 0.33 0.28 0.22 0.20 0.26 0.36 0.37 0.33 0.24 0.31 0.29 0.34 0.32 0.28 0.26 0.24 0.22 0.28 0.39 0.39 0.32 0.41 0.44 0.48 0.46 0.42 0.41 0.27 0.28 0.25 0.25 0.28 0.31 0.39 0.56 0.57 0.71 0.72 0.79 0.94 0.90
0.44 0.36 0.52 0.50 0.32 0.23 0.16 0.16 0.22 0.32 0.36 0.33 0.27 0.27 0.36 0.38 0.40 0.34 0.33 0.37 0.34 0.32 0.29 0.33 0.35 0.32 0.33 0.34 0.37 0.38 0.35 0.33 0.29 0.24 0.24 0.26 0.33 0.55 0.62 0.70 0.72 0.69 0.77 1.03 0.77
0.46 0.33 0.56 0.52 0.19 0.19 0.17 0.18 0.22 0.26 0.34 0.32 0.29 0.30 0.33 0.35 0.36 0.35 0.34 0.44 0.47 0.43 0.34 0.35 0.30 0.27 0.29 0.35 0.36 0.35 0.34 0.33 0.30 0.30 0.32 0.27 0.23 0.46 0.61 0.67 0.67 0.71 0.89 0.82 0.81
0.42 0.42 0.56 0.46 0.16 0.16 0.19 0.19 0.20 0.22 0.25 0.31 0.27 0.25 0.27 0.26 0.28 0.33 0.32 0.40 0.47 0.46 0.41 0.40 0.33 0.25 0.26 0.29 0.31 0.37 0.38 0.39 0.36 0.32 0.28 0.32 0.34 0.50 0.62 0.64 0.71 0.76 0.91 0.87 0.85
0.44 0.39 0.42 0.38 0.23 0.21 0.25 0.21 0.21 0.27 0.26 0.30 0.26 0.26 0.25 0.24 0.27 0.27 0.32 0.39 0.43 0.44 0.47 0.45 0.34 0.33 0.30 0.32 0.40 0.47 0.52 0.47 0.47 0.35 0.33 0.31 0.32 0.39 0.65 0.79 0.91 0.97 0.96 1.06 1.09
0.42 0.48 0.66 0.38 0.25 0.19 0.22 0.29 0.25 0.22 0.25 0.25 0.25 0.22 0.25 0.26 0.27 0.25 0.27 0.29 0.33 0.38 0.39 0.35 0.32 0.37 0.36 0.39 0.41 0.44 0.51 0.57 0.54 0.53 0.47 0.50 0.53 0.61 0.83 0.86 0.85 0.83 1.04 1.05 1.10
0.49 0.50 0.57 0.51 0.46 0.38 0.29 0.24 0.26 0.32 0.26 0.30 0.41 0.33 0.35 0.35 0.36 0.30 0.31 0.31 0.27 0.30 0.30 0.41 0.34 0.40 0.38 0.43 0.43 0.38 0.45 0.48 0.50 0.59 0.58 0.63 0.55 0.75 0.79 1.02 0.95 1.06 1.60 1.22 1.24
0.61 0.58 0.49 0.36 0.38 0.35 0.34 0.36 0.35 0.39 0.42 0.47 0.45 0.51 0.47 0.49 0.59 0.58 0.53 0.47 0.38 0.35 0.39 0.41 0.44 0.48 0.43 0.52 0.48 0.44 0.44 0.39 0.47 0.55 0.65 0.56 0.64 0.78 0.75 0.76 0.85 0.94 1.30 1.45 1.43
Wind_Speed
1 1 1 2 1 0 1 1 2 2 2 2 2 1 1 2 3 7 8 10 12 11 11 8 6 5 6 4 5 3 5 5 7 7 8 6 8 8 8 7 7 3 4 10 12
1 1 2 2 1 1 0 1 1 1 1 1 2 2 2 1 4 8 9 9 12 13 12 9 6 6 7 6 9 8 5 5 9 9 10 7 9 6 5 6 8 8 11 11 12
1 1 2 2 2 1 1 1 0 1 1 1 1 2 3 4 5 9 10 11 14 13 9 4 5 5 5 8 13 7 4 6 8 8 10 8 10 6 4 7 5 5 7 9 11
1 1 2 2 2 2 2 2 1 1 0 1 1 2 2 5 6 10 13 13 14 12 8 5 5 4 4 6 13 4 3 7 9 8 7 10 7 9 9 6 5 4 6 8 9
1 2 3 3 3 3 3 3 2 1 1 1 1 2 4 6 9 13 14 13 13 10 7 5 1 9 4 4 10 4 5 6 6 6 5 4 8 9 8 8 6 5 6 7 8
2 3 4 4 4 4 4 4 3 3 2 2 2 3 7 8 12 14 12 11 10 8 6 3 3 4 2 5 6 4 5 4 3 4 3 6 4 5 6 6 7 5 5 6 7
3 4 4 5 5 5 5 5 4 4 3 3 3 5 9 8 10 13 10 10 10 8 3 3 3 2 4 3 4 2 4 6 1 1 2 4 5 2 5 5 6 4 3 5 6
3 3 3 4 5 5 5 6 5 5 4 4 5 6 7 10 11 13 12 11 9 7 5 2 0 1 1 1 2 1 3 1 1 2 0 3 5 2 3 2 3 3 3 2 4
3 3 3 3 4 4 5 5 6 6 6 6 6 7 6 9 12 13 13 11 8 7 5 3 2 3 4 3 6 6 1 1 3 2 1 4 4 4 5 3 3 3 2 1 2
3 3 3 3 3 3 4 5 6 6 7 7 7 6 9 10 11 13 13 11 7 6 6 6 6 6 6 5 4 3 6 3 3 3 3 5 6 5 6 5 5 6 6 4 4
4 4 4 4 3 3 3 5 5 6 11 12 10 12 7 9 12 12 13 11 9 8 8 8 7 8 6 6 2 4 5 8 1 4 8 10 8 7 7 7 7 8 9 7 6
6 6 5 4 4 4 5 7 3 5 6 15 14 12 7 10 10 12 13 12 11 10 9 8 10 7 5 10 5 6 8 7 9 3 6 9 12 10 11 11 8 8 10 10 8
8 7 7 6 5 4 7 7 5 5 9 13 18 17 13 11 11 12 15 15 13 12 12 14 7 5 6 7 8 9 10 12 7 13 16 19 16 16 12 12 8 9 10 12 11
10 9 8 8 5 5 6 5 5 5 6 11 17 16 19 15 16 15 16 16 15 16 14 13 13 14 10 10 11 14 8 11 12 13 14 11 15 11 8 14 8 11 11 10 12
12 11 11 9 8 6 5 5 5 5 5 8 11 8 16 20 6 16 16 15 19 16 14 15 15 14 16 15 15 15 15 14 13 16 19 18 15 9 11 12 7 5 7 10 12
14 13 13 12 12 12 8 7 7 7 9 8 8 10 14 18 20 13 16 17 17 19 19 19 18 15 13 13 15 15 15 17 19 18 18 19 14 16 4 9 8 9 8 8 8
16 16 15 15 12 11 10 10 9 11 5 9 11 12 14 15 18 20 16 19 18 17 18 19 22 21 19 18 18 17 17 17 17 15 17 9 4 11 14 10 9 9 6 7 11
19 18 18 18 16 15 13 13 13 12 12 6 6 11 14 15 15 19 22 19 21 22 20 19 17 19 20 22 20 19 20 17 22 19 19 9 12 16 12 18 14 10 10 10 9
19 18 18 18 20 18 17 18 13 14 10 9 12 13 15 16 15 15 21 23 22 21 23 22 24 19 16 13 17 19 21 20 24 25 24 23 25 15 6 7 7 7 7 9 9
18 18 20 18 19 20 21 23 22 14 12 12 14 12 16 16 16 17 17 19 24 24 23 22 23 22 23 18 19 20 20 22 20 23 24 21 23 18 13 15 8 9 12 8 9
18 18 17 18 20 22 23 24 24 23 16 18 19 18 14 16 13 15 17 15 19 19 23 25 22 21 20 22 23 21 22 20 21 21 21 21 19 12 13 14 19 17 11 10 12
20 20 18 20 21 23 25 25 25 23 18 18 21 19 17 16 16 18 19 14 9 13 18 21 24 25 28 25 24 24 24 24 22 20 19 21 23 20 17 15 14 14 13 14 14
19 20 19 22 21 23 24 26 26 25 26 22 20 23 22 22 21 21 21 21 14 15 14 16 17 21 21 22 21 20 24 23 22 24 25 22 21 18 14 17 23 20 15 14 15
17 16 16 20 24 25 23 25 26 24 24 23 23 23 22 22 23 23 23 20 16 18 18 19 23 24 22 20 16 12 20 19 20 20 21 22 23 17 15 8 7 13 15 14 15
16 16 13 15 19 24 25 23 21 25 26 23 24 27 24 24 25 26 26 26 26 22 20 20 24 25 27 27 26 24 17 21 21 18 13 18 11 12 13 12 17 22 20 18 15
15 13 14 17 17 17 20 23 24 21 22 22 21 24 23 22 23 23 24 23 22 23 23 21 23 23 26 25 26 30 28 27 21 22 29 26 23 17 19 17 17 20 19 16 17
12 16 15 16 16 18 18 20 21 21 22 18 22 17 17 17 18 20 20 21 22 21 20 20 20 18 22 21 23 24 25 26 28 27 26 25 27 27 28 25 25 28 25 17 17
Wind_Direction
209 227 228 201 197 111 65 60 60 60 51 58 73 82 131 184 208 178 176 175 173 168 162 164 168 175 156 144 108 28 71 58 89 76 87 110 73 62 80 73 52 45 140 144 149
235 232 210 194 188 176 109 48 47 41 44 66 73 73 87 108 161 177 164 164 166 164 161 160 166 152 144 122 94 90 77 66 77 67 86 73 76 90 73 89 72 72 103 135 152
220 211 190 197 200 211 252 301 342 3 43 92 91 96 92 104 137 142 156 153 159 163 173 190 145 160 182 153 114 83 85 77 82 63 84 76 75 55 52 80 88 111 129 145 161
175 191 205 220 229 247 263 266 279 275 211 167 149 133 115 137 126 137 143 144 153 158 162 161 134 122 87 243 132 135 135 93 89 82 71 90 65 65 55 40 81 121 148 157 169
241 241 238 248 254 257 257 262 260 250 238 220 204 180 154 156 137 140 141 144 151 155 162 171 224 149 166 121 129 105 119 99 89 78 36 96 82 47 69 61 80 109 148 165 177
269 265 259 256 258 259 256 253 243 239 239 231 193 166 160 155 144 148 146 153 163 165 157 149 78 105 74 117 110 93 69 79 104 86 62 33 13 35 70 66 80 105 147 174 188
282 280 267 258 258 259 252 248 243 238 231 193 175 168 170 176 164 166 163 161 161 163 168 117 99 73 25 54 124 128 66 41 321 175 4 30 31 313 100 79 88 98 140 175 197
306 301 283 269 263 257 254 247 236 219 204 186 165 166 172 169 171 173 170 167 165 170 178 164 94 295 253 9 54 300 150 273 199 8 4 320 320 204 175 111 120 116 107 155 205
324 316 298 284 269 259 251 238 222 210 198 188 171 173 202 166 176 176 173 173 172 182 196 206 225 239 286 100 340 297 335 305 78 338 265 321 275 238 226 213 198 190 180 187 216
317 310 302 294 279 268 253 222 201 202 193 187 191 178 194 181 173 177 179 188 194 196 209 215 220 251 272 240 275 300 216 285 71 347 306 264 289 257 232 236 229 218 223 236 241
305 303 297 291 284 275 223 186 184 198 204 197 174 189 142 164 162 182 186 192 204 213 224 215 239 266 297 253 312 304 316 311 295 297 299 302 302 286 248 237 241 234 225 235 245
291 290 288 286 280 257 205 187 216 219 233 215 218 215 196 185 191 199 193 201 207 222 216 235 237 268 241 257 288 284 286 305 297 284 285 293 286 272 264 240 250 243 238 234 237
284 279 276 276 275 222 210 243 239 245 236 234 215 218 208 211 219 211 202 212 225 224 239 246 251 272 267 276 259 262 270 307 306 305 297 278 280 273 259 229 257 246 259 236 233
278 272 267 268 236 237 229 224 229 251 245 226 209 221 219 218 234 226 211 220 226 242 245 253 256 255 265 268 261 273 310 298 293 298 299 307 280 327 310 244 253 258 244 246 235
275 268 259 242 240 225 231 235 244 224 250 159 197 221 213 215 198 214 219 221 234 236 244 254 251 256 263 266 268 266 288 298 300 291 289 284 281 265 278 251 274 324 217 247 240
272 264 256 234 230 235 248 239 230 226 245 197 203 221 217 217 228 242 219 228 236 246 255 260 263 268 262 270 264 273 287 282 283 282 280 279 274 274 219 232 253 272 265 251 269
269 260 246 238 226 235 235 229 226 231 222 214 217 222 218 222 226 229 220 223 233 240 250 256 255 260 261 259 267 269 274 278 280 279 283 288 277 243 297 273 263 253 247 262 274
267 255 241 235 234 234 229 226 236 243 237 239 241 213 226 231 227 228 231 237 241 245 259 259 254 247 254 251 258 261 261 268 279 279 281 271 260 275 280 266 270 246 256 269 268
266 244 240 236 229 229 227 227 228 240 269 254 243 247 240 243 240 229 237 243 247 240 249 260 263 266 270 256 255 262 257 268 273 275 276 277 280 263 233 284 227 227 238 255 264
253 246 241 226 224 227 232 236 237 267 250 260 257 256 248 231 235 248 239 245 248 253 247 253 264 264 267 273 258 261 273 275 268 270 269 277 278 283 258 247 220 261 252 246 274
243 238 225 231 227 231 235 237 243 249 250 250 256 263 254 261 242 243 246 258 248 251 249 257 255 263 265 261 262 263 254 260 265 266 277 281 272 249 273 251 268 258 244 261 282
240 240 230 229 232 236 239 240 246 253 245 249 253 257 263 266 257 257 262 270 282 271 258 265 256 264 266 265 263 262 261 263 258 263 261 267 272 274 250 256 238 245 250 273 287
235 236 237 235 239 239 242 243 245 245 248 252 251 251 257 258 262 261 263 262 274 265 273 274 269 263 265 266 265 258 259 253 263 265 267 272 271 277 258 263 258 259 255 264 273
233 236 234 236 240 247 254 244 243 245 250 253 258 256 257 257 258 260 263 263 261 264 262 268 264 264 272 268 273 276 273 259 278 265 270 266 275 290 311 268 229 236 259 269 270
225 229 257 234 236 237 244 250 256 240 243 246 253 251 255 259 259 260 259 259 259 263 261 264 264 265 267 270 270 279 260 266 260 279 289 287 310 301 306 285 270 251 251 252 255
236 240 256 250 254 249 244 243 250 251 241 242 245 252 256 260 256 262 264 262 259 261 260 254 261 262 266 269 273 271 269 274 263 270 270 277 280 273 282 286 282 274 231 241 247
247 245 247 249 251 247 245 245 242 245 248 247 248 257 249 262 265 267 267 266 265 263 260 262 268 268 270 275 275 274 275 276 284 276 293 281 275 276 273 271 273 276 276 279 247